EW5196 Weather Reports


time (UTC)temp
F
wind
direction
speed
knots
gust
knots
rain 1hr
in
rain 24hr
in
rain mn
in
humidity
%
barometer
mb
20260902202443 95 344 1.7 4.3 0.00 0.00 0.00 54 1018.3
20260902201939 95 270 1.7 2.6 0.00 0.00 0.00 53 1018.3
20260902201434 96 336 1.7 3.5 0.00 0.00 0.00 52 1018.5
20260902200934 96 285 1.7 1.7 0.00 0.00 0.00 51 1018.7
20260902200430 96 315 0.0 1.7 0.00 0.00 0.00 51 1018.6
20260902195925 95 259 0.9 6.1 0.00 0.00 0.00 49 1018.5
20260902195420 96 281 4.3 5.2 0.00 0.00 0.00 49 1018.7
20260902194914 96 277 2.6 6.1 0.00 0.00 0.00 50 1018.6
20260902194414 95 266 5.2 5.2 0.00 0.00 0.00 51 1018.4
20260902193909 95 202 0.9 1.7 0.00 0.00 0.00 52 1018.6
20260902193405 96 265 0.0 2.6 0.00 0.00 0.00 50 1018.5
20260902192903 96 186 0.9 5.2 0.00 0.00 0.00 51 1018.3
20260902192403 96 243 4.3 4.3 0.00 0.00 0.00 51 1018.4
20260902191856 96 320 1.7 3.5 0.00 0.00 0.00 50 1018.5
20260902191352 96 159 0.0 2.6 0.00 0.00 0.00 52 1018.7
20260902190847 95 174 2.6 4.3 0.00 0.00 0.00 52 1018.4
20260902190347 95 9 2.6 2.6 0.00 0.00 0.00 52 1018.6
20260902185843 96 331 1.7 2.6 0.00 0.00 0.00 52 1018.8
20260902185338 94 261 0.9 2.6 0.00 0.00 0.00 54 1018.9
20260902184834 94 272 0.0 0.9 0.00 0.00 0.00 56 1018.8
20260902184329 94 157 0.0 2.6 0.00 0.00 0.00 54 1018.9
20260902183825 94 194 1.7 4.3 0.00 0.00 0.00 55 1019.1
20260902183321 95 281 3.5 5.2 0.00 0.00 0.00 53 1019.2
20260902182817 95 190 0.9 1.7 0.00 0.00 0.00 54 1019.2
20260902182313 95 203 0.0 5.2 0.00 0.00 0.00 54 1019.1
20260902181809 95 201 0.9 4.3 0.00 0.00 0.00 53 1019.2
20260902181309 95 345 1.7 2.6 0.00 0.00 0.00 53 1019.0
20260902180804 95 148 1.7 4.3 0.00 0.00 0.00 54 1019.1
20260902180300 95 268 0.9 3.5 0.00 0.00 0.00 54 1019.4
20260902175755 95 271 1.7 3.5 0.00 0.00 0.00 53 1019.3
20260902175250 95 230 1.7 4.3 0.00 0.00 0.00 53 1019.4
20260902174746 95 252 1.7 4.3 0.00 0.00 0.00 51 1019.3
20260902174242 94 279 2.6 2.6 0.00 0.00 0.00 54 1019.4
20260902173737 94 151 1.7 2.6 0.00 0.00 0.00 52 1019.3
20260902173237 94 291 2.6 4.3 0.00 0.00 0.00 54 1019.4
20260902172732 94 64 0.0 4.3 0.00 0.00 0.00 53 1019.2
20260902172232 94 243 3.5 4.3 0.00 0.00 0.00 54 1019.1
20260902171727 93 207 4.3 4.3 0.00 0.00 0.00 53 1019.4
20260902171222 93 163 7.0 7.8 0.00 0.00 0.00 53 1019.3
20260902170718 93 249 3.5 5.2 0.00 0.00 0.00 54 1019.3
20260902170214 94 150 0.9 4.3 0.00 0.00 0.00 54 1019.2
20260902165713 93 217 1.7 2.6 0.00 0.00 0.00 54 1019.3
20260902165209 93 230 3.5 3.5 0.00 0.00 0.00 54 1019.2
20260902164709 93 202 4.3 5.2 0.00 0.00 0.00 54 1019.3
20260902164203 93 182 0.0 2.6 0.00 0.00 0.00 54 1019.4
20260902163658 93 211 0.0 3.5 0.00 0.00 0.00 54 1019.3
20260902163157 93 232 2.6 4.3 0.00 0.00 0.00 55 1019.4
20260902162656 93 127 2.6 2.6 0.00 0.00 0.00 55 1019.3
20260902162150 92 236 0.0 4.3 0.00 0.00 0.00 56 1019.3
20260902161646 92 127 0.9 3.5 0.00 0.00 0.00 56 1019.6
20260902161141 92 252 1.7 2.6 0.00 0.00 0.00 56 1019.1
20260902160638 92 247 0.0 3.5 0.00 0.00 0.00 56 1019.5
20260902160132 91 267 0.9 3.5 0.00 0.00 0.00 58 1019.5
20260902155631 92 30 0.0 2.6 0.00 0.00 0.00 57 1019.6
20260902155130 92 206 0.0 4.3 0.00 0.00 0.00 57 1019.5
20260902154625 92 140 1.7 2.6 0.00 0.00 0.00 59 1019.5
20260902154120 92 304 0.0 1.7 0.00 0.00 0.00 58 1019.6
20260902153619 92 147 1.7 2.6 0.00 0.00 0.00 61 1019.6
20260902153114 91 269 1.7 1.7 0.00 0.00 0.00 59 1019.7
20260902152611 91 287 0.0 3.5 0.00 0.00 0.00 59 1019.6
20260902152105 90 269 1.7 4.3 0.00 0.00 0.00 59 1019.6
20260902151601 90 226 1.7 1.7 0.00 0.00 0.00 60 1019.7
20260902151100 90 282 2.6 4.3 0.00 0.00 0.00 61 1019.6
20260902150556 90 174 0.9 3.5 0.00 0.00 0.00 60 1019.8
20260902150051 90 273 0.0 1.7 0.00 0.00 0.00 61 1019.9
20260902145546 90 262 3.5 3.5 0.00 0.00 0.00 62 1019.7
20260902145045 90 154 0.0 1.7 0.00 0.00 0.00 61 1019.7
20260902144537 89 196 2.6 3.5 0.00 0.00 0.00 61 1019.9
20260902144037 89 179 1.7 1.7 0.00 0.00 0.00 62 1019.9
20260902143538 89 216 1.7 4.3 0.00 0.00 0.00 61 1020.1
20260902143034 89 152 0.0 0.9 0.00 0.00 0.00 62 1019.8
20260902142529 90 248 1.7 2.6 0.00 0.00 0.00 61 1019.7
20260902142024 90 275 2.6 4.3 0.00 0.00 0.00 63 1019.7
20260902141524 89 239 2.6 3.5 0.00 0.00 0.00 64 1019.7
20260902141019 89 175 0.9 1.7 0.00 0.00 0.00 65 1019.7
20260902140514 88 259 0.0 3.5 0.00 0.00 0.00 66 1019.7
20260902140010 87 92 0.0 1.7 0.00 0.00 0.00 68 1019.5
20260902135504 86 260 1.7 1.7 0.00 0.00 0.00 71 1019.7
20260902135003 84 182 0.0 2.6 0.00 0.00 0.00 73 1019.5
20260902134459 84 162 1.7 1.7 0.00 0.00 0.00 76 1019.6
20260902133954 83 209 0.9 1.7 0.00 0.00 0.00 78 1019.4
20260902133448 82 176 0.0 0.9 0.00 0.00 0.00 81 1019.5
20260902132943 82 152 0.0 1.7 0.00 0.00 0.00 80 1019.5
20260902132439 82 137 0.0 1.7 0.00 0.00 0.00 80 1019.5
20260902131933 82 250 1.7 2.6 0.00 0.00 0.00 78 1019.2
20260902131430 81 203 0.0 0.9 0.00 0.00 0.00 81 1019.4
20260902130929 80 244 1.7 2.6 0.00 0.00 0.00 84 1019.3
20260902130425 79 210 0.0 0.0 0.00 0.00 0.00 87 1019.5
20260902125920 78 223 0.0 0.9 0.00 0.00 0.00 87 1019.6
20260902125416 78 166 0.9 1.7 0.00 0.00 0.00 89 1019.4
20260902124912 77 106 0.0 0.9 0.00 0.00 0.00 90 1019.6
20260902124408 77 158 0.0 0.9 0.00 0.00 0.00 91 1019.3
20260902123903 76 165 0.0 0.9 0.00 0.00 0.00 93 1019.5
20260902123359 76 133 0.9 1.7 0.00 0.00 0.00 95 1019.4
20260902122857 76 105 0.0 0.0 0.00 0.00 0.00 96 1019.4
20260902122353 75 105 0.0 0.0 0.00 0.00 0.00 96 1019.1
20260902121848 75 119 0.0 0.9 0.00 0.00 0.00 95 1019.4
20260902121343 75 143 0.0 0.0 0.00 0.00 0.00 95 1019.2
20260902120838 75 191 0.0 0.9 0.00 0.00 0.00 95 1019.1
20260902120334 75 179 0.0 0.9 0.00 0.00 0.00 95 1019.2
20260902115828 75 191 0.0 0.9 0.00 0.00 0.00 95 1019.2
20260902115325 75 186 0.0 1.7 0.00 0.00 0.00 96 1019.3
20260902114821 75 204 0.0 0.9 0.00 0.00 0.00 96 1019.3
20260902114317 75 193 0.9 1.7 0.00 0.00 0.00 96 1019.2
20260902113816 75 176 0.9 1.7 0.00 0.00 0.00 96 1019.2
20260902113312 75 185 0.0 1.7 0.00 0.00 0.00 96 1019.2
20260902112812 75 162 0.0 0.9 0.00 0.00 0.00 96 1019.5
20260902112309 75 147 1.7 1.7 0.00 0.00 0.00 96 1019.5
20260902111804 75 168 0.0 0.9 0.00 0.00 0.00 95 1019.3
20260902111300 75 146 0.0 0.9 0.00 0.00 0.00 95 1019.2
20260902110755 75 155 0.9 1.7 0.00 0.00 0.00 96 1019.5
20260902110251 75 187 0.9 1.7 0.00 0.00 0.00 96 1019.2
20260902105750 75 215 0.0 0.9 0.00 0.00 0.00 96 1019.0
20260902105246 74 195 0.9 1.7 0.00 0.00 0.00 96 1019.1
20260902104741 74 184 1.7 1.7 0.00 0.00 0.00 96 1019.3
20260902104237 74 188 0.9 1.7 0.00 0.00 0.00 96 1019.1
20260902103736 74 194 0.9 1.7 0.00 0.00 0.00 96 1019.0
20260902103231 74 189 0.9 1.7 0.00 0.00 0.00 96 1019.1
20260902102727 74 159 0.9 1.7 0.00 0.00 0.00 96 1019.0
20260902102224 74 164 0.9 0.9 0.00 0.00 0.00 96 1018.9
20260902101719 74 187 0.9 1.7 0.00 0.00 0.00 97 1018.9
20260902101214 74 187 0.9 1.7 0.00 0.00 0.00 97 1019.1
20260902100708 74 180 0.0 1.7 0.00 0.00 0.00 97 1018.7
20260902100202 74 168 1.7 1.7 0.00 0.00 0.00 97 1018.9
20260902095701 74 159 0.9 1.7 0.00 0.00 0.00 97 1018.5
20260902095156 74 139 0.0 0.9 0.00 0.00 0.00 97 1018.9
20260902094651 74 119 0.0 0.0 0.00 0.00 0.00 97 1018.7
20260902094148 74 236 0.9 0.9 0.00 0.00 0.00 97 1018.8
20260902093646 74 158 1.7 1.7 0.00 0.00 0.00 97 1018.5
20260902093142 74 160 0.9 1.7 0.00 0.00 0.00 97 1018.6
20260902092636 74 133 0.9 1.7 0.00 0.00 0.00 97 1018.8
20260902092131 74 132 1.7 1.7 0.00 0.00 0.00 97 1018.5
20260902091626 74 92 0.0 0.0 0.00 0.00 0.00 97 1018.7
20260902091123 74 171 0.0 0.0 0.00 0.00 0.00 97 1018.4
20260902090618 74 101 0.9 1.7 0.00 0.00 0.00 97 1018.5
20260902090117 74 146 1.7 2.6 0.00 0.00 0.00 97 1018.5
20260902085612 74 159 0.9 1.7 0.00 0.00 0.00 98 1018.5
20260902085107 74 164 1.7 1.7 0.00 0.00 0.00 98 1018.7
20260902084603 74 116 0.0 0.9 0.00 0.00 0.00 98 1018.5
20260902084059 74 181 1.7 2.6 0.00 0.00 0.00 98 1018.4
20260902083553 74 140 1.7 1.7 0.00 0.00 0.00 98 1018.6
20260902083048 74 165 0.0 1.7 0.00 0.00 0.00 98 1018.5
20260902082543 74 133 0.0 0.0 0.00 0.00 0.00 98 1018.5
20260902082040 73 242 0.0 1.7 0.00 0.00 0.00 98 1018.4
20260902081536 74 159 1.7 1.7 0.00 0.00 0.00 98 1018.3
20260902081036 74 161 1.7 1.7 0.00 0.00 0.00 98 1018.4
20260902080531 74 150 0.0 0.9 0.00 0.00 0.00 97 1018.4
20260902080028 74 145 0.9 1.7 0.00 0.00 0.00 97 1018.4
20260902075527 74 96 0.0 0.9 0.00 0.00 0.00 97 1018.4
20260902075023 74 121 0.0 1.7 0.00 0.00 0.00 97 1018.3
20260902074519 74 119 0.9 1.7 0.00 0.00 0.00 97 1018.3
20260902074019 74 139 0.9 1.7 0.00 0.00 0.00 97 1018.3
20260902073509 74 134 0.9 1.7 0.00 0.00 0.00 97 1018.3
20260902073006 74 180 0.9 0.9 0.00 0.00 0.00 97 1018.3
20260902072500 74 183 0.9 0.9 0.00 0.00 0.00 97 1018.2
20260902071957 74 168 0.9 1.7 0.00 0.00 0.00 97 1018.2
20260902071456 74 176 0.9 1.7 0.00 0.00 0.00 97 1018.2
20260902070953 74 172 1.7 1.7 0.00 0.00 0.00 97 1018.2
20260902070448 74 165 0.9 1.7 0.00 0.00 0.00 97 1018.4
20260902065947 74 166 0.0 0.9 0.00 0.00 0.00 97 1018.4
20260902065442 74 135 0.9 0.9 0.00 0.00 0.00 97 1018.5
20260902064937 74 148 0.9 1.7 0.00 0.00 0.00 97 1018.3
20260902064433 74 194 0.0 0.0 0.00 0.00 0.00 97 1018.3
20260902063928 74 133 0.0 0.9 0.00 0.00 0.00 97 1018.3
20260902063428 74 142 0.0 0.9 0.00 0.00 0.00 97 1018.1
20260902062923 74 137 0.9 1.7 0.00 0.00 0.00 96 1018.2
20260902062422 74 127 0.9 1.7 0.00 0.00 0.00 96 1018.2
20260902061917 75 159 0.9 1.7 0.00 0.00 0.00 96 1018.3
20260902061412 75 175 0.9 1.7 0.00 0.00 0.00 97 1018.2
20260902060908 75 182 0.9 1.7 0.00 0.00 0.00 97 1018.1
20260902060404 75 175 0.9 1.7 0.00 0.00 0.00 97 1018.3
20260902055900 75 195 0.9 1.7 0.00 0.00 0.00 97 1018.2
20260902055356 75 171 0.9 1.7 0.00 0.00 0.00 96 1018.2
20260902054851 75 184 0.0 1.7 0.00 0.00 0.00 96 1018.3
20260902054346 75 177 1.7 1.7 0.00 0.00 0.00 96 1018.2
20260902053842 75 161 0.9 1.7 0.00 0.00 0.00 96 1018.3
20260902053336 75 160 0.9 0.9 0.00 0.00 0.00 96 1018.1
20260902052835 75 159 0.0 0.9 0.00 0.00 0.00 96 1018.2
20260902052331 75 168 0.0 0.9 0.00 0.00 0.00 96 1018.1
20260902051826 75 164 0.9 0.9 0.00 0.00 0.00 96 1018.4
20260902051325 75 146 0.9 0.9 0.00 0.00 0.00 95 1018.2
20260902050820 76 139 0.0 0.9 0.00 0.00 0.00 95 1018.2
20260902050320 76 154 0.0 0.9 0.00 0.00 0.00 95 1018.3
20260902045815 76 147 0.0 0.9 0.00 0.00 0.00 95 1018.4
20260902045311 76 179 0.9 1.7 0.00 0.00 0.00 95 1018.0
20260902044807 76 187 0.9 1.7 0.00 0.00 0.00 95 1018.1
20260902044302 76 158 0.0 0.9 0.00 0.00 0.00 95 1018.2
20260902043756 76 184 0.0 0.0 0.00 0.00 0.00 94 1018.1
20260902043252 76 92 0.0 1.7 0.00 0.00 0.00 94 1017.8
20260902042751 76 156 0.9 1.7 0.00 0.00 0.00 94 1018.0
20260902042246 77 189 0.9 1.7 0.00 0.00 0.00 93 1018.0
20260902041742 77 180 0.9 1.7 0.00 0.00 0.00 93 1018.0
20260902041241 77 170 0.9 1.7 0.00 0.00 0.00 93 1017.9
20260902040741 77 145 1.7 1.7 0.00 0.00 0.00 92 1017.9
20260902040236 77 235 0.0 0.9 0.00 0.00 0.00 92 1017.8
20260902035735 77 192 0.0 1.7 0.00 0.00 0.00 92 1017.8
20260902035231 77 150 1.7 1.7 0.00 0.00 0.00 92 1017.7
20260902034729 77 174 0.9 1.7 0.00 0.00 0.00 92 1017.7
20260902034224 77 184 0.0 0.9 0.00 0.00 0.00 92 1017.6
20260902033722 77 187 1.7 1.7 0.00 0.00 0.00 92 1017.5
20260902033218 77 186 0.9 0.9 0.00 0.00 0.00 92 1017.5
20260902032716 77 159 0.9 1.7 0.00 0.00 0.00 91 1017.5
20260902032212 77 143 0.0 0.9 0.00 0.00 0.00 91 1017.3
20260902031711 77 186 0.9 1.7 0.00 0.00 0.00 91 1017.5
20260902031201 78 152 0.9 0.9 0.00 0.00 0.00 91 1017.3
20260902030657 78 185 0.9 1.7 0.00 0.00 0.00 91 1017.8
20260902030156 78 161 0.9 1.7 0.00 0.00 0.00 91 1017.6
20260902025650 78 188 0.9 0.9 0.00 0.00 0.00 91 1017.5
20260902025146 78 247 0.0 0.0 0.00 0.00 0.00 91 1017.5
20260902024641 78 184 0.0 0.9 0.00 0.00 0.00 90 1017.3
20260902024136 78 171 0.0 0.9 0.00 0.00 0.00 90 1017.5
20260902023631 78 149 0.9 0.9 0.00 0.00 0.00 90 1017.5
20260902023126 78 169 0.0 0.9 0.00 0.00 0.00 90 1017.7
20260902022625 78 144 0.9 1.7 0.00 0.00 0.00 90 1017.6
20260902022121 78 147 0.9 1.7 0.00 0.00 0.00 90 1017.2
20260902021617 78 165 0.0 0.9 0.00 0.00 0.00 90 1017.4
20260902021111 78 144 0.9 0.9 0.00 0.00 0.00 89 1017.5
20260902020608 78 156 0.9 0.9 0.00 0.00 0.00 89 1017.6
20260902020103 78 170 0.9 0.9 0.00 0.00 0.00 89 1017.3
20260902015558 78 174 0.0 0.9 0.00 0.00 0.00 89 1017.4
20260902015054 78 177 0.9 1.7 0.00 0.00 0.00 88 1017.5
20260902014550 79 174 0.9 0.9 0.00 0.00 0.00 88 1017.2
20260902014045 79 155 0.0 0.9 0.00 0.00 0.00 88 1016.9
20260902013544 79 169 0.9 0.9 0.00 0.00 0.00 88 1017.1
20260902013041 79 163 0.9 1.7 0.00 0.00 0.00 87 1016.9
20260902012536 79 186 0.0 0.9 0.00 0.00 0.00 87 1017.0
20260902012031 80 210 0.0 0.9 0.00 0.00 0.00 87 1016.7
20260902011526 80 165 0.9 0.9 0.00 0.00 0.00 87 1016.8
20260902011026 80 194 0.0 0.9 0.00 0.00 0.00 87 1016.6
20260902010525 80 175 0.0 0.0 0.00 0.00 0.00 86 1016.6
20260902010021 80 184 0.0 0.0 0.00 0.00 0.00 85 1016.7
20260902005519 80 171 0.0 0.0 0.00 0.00 0.00 85 1016.8
20260902005016 80 171 0.9 0.9 0.00 0.00 0.00 84 1016.7
20260902004515 81 180 0.0 0.9 0.00 0.00 0.00 83 1016.8
20260902004010 81 154 0.0 0.9 0.00 0.00 0.00 83 1016.5
20260902003506 81 165 0.0 0.9 0.00 0.00 0.00 83 1016.5
20260902003000 81 159 0.0 0.9 0.00 0.00 0.00 82 1016.4
20260902002456 81 168 0.0 0.9 0.00 0.00 0.00 82 1016.2
20260902001956 82 187 0.0 0.0 0.00 0.00 0.00 82 1016.3
20260902001450 82 159 0.0 0.9 0.00 0.00 0.00 81 1016.3
20260902000946 82 138 0.9 1.7 0.00 0.00 0.00 80 1016.5
20260902000444 83 159 0.0 0.9 0.00 0.00 0.00 79 1016.4
20260901235936 83 184 0.0 0.9 0.00 0.00 0.00 78 1016.5
20260901235431 84 210 0.0 0.9 0.00 0.00 0.00 78 1016.5
20260901234926 84 134 0.0 0.0 0.00 0.00 0.00 74 1016.3
20260901234420 85 165 0.0 0.0 0.00 0.00 0.00 74 1016.4
20260901233914 85 172 0.0 0.0 0.00 0.00 0.00 74 1016.2
20260901233410 86 155 0.0 0.9 0.00 0.00 0.00 71 1016.3
20260901232906 86 184 0.0 0.0 0.00 0.00 0.00 69 1016.3
20260901232401 87 216 0.0 0.0 0.00 0.00 0.00 67 1016.2
20260901231856 87 172 0.0 0.9 0.00 0.00 0.00 68 1016.2
20260901231353 88 172 0.0 0.0 0.00 0.00 0.00 66 1016.5
20260901230849 89 235 0.0 0.9 0.00 0.00 0.00 69 1016.6
20260901230348 89 235 0.0 0.0 0.00 0.00 0.00 63 1016.4
20260901225844 89 225 0.0 0.0 0.00 0.00 0.00 61 1016.5
20260901225343 90 217 0.0 0.9 0.00 0.00 0.00 62 1016.4
20260901224838 90 232 0.0 0.0 0.00 0.00 0.00 67 1016.5
20260901224335 91 194 0.0 0.0 0.00 0.00 0.00 64 1016.5
20260901223831 91 184 0.0 0.0 0.00 0.00 0.00 60 1016.8
20260901223326 91 172 0.0 0.0 0.00 0.00 0.00 61 1016.6
20260901222821 92 272 0.0 0.0 0.00 0.00 0.00 58 1016.8
20260901222318 92 235 0.0 0.0 0.00 0.00 0.00 57 1016.6
20260901221813 93 276 0.0 0.0 0.00 0.00 0.00 55 1016.9
20260901221309 94 285 0.0 0.9 0.00 0.00 0.00 52 1017.0
20260901220808 93 254 0.0 0.9 0.00 0.00 0.00 54 1016.8
20260901220302 92 260 0.0 1.7 0.00 0.00 0.00 54 1016.8
20260901215801 93 272 0.0 0.0 0.00 0.00 0.00 54 1016.6
20260901215300 93 260 0.0 0.9 0.00 0.00 0.00 54 1016.9
20260901214759 93 299 0.0 0.0 0.00 0.00 0.00 55 1017.0
20260901214258 93 265 0.0 0.9 0.00 0.00 0.00 54 1016.8
20260901213753 93 259 0.0 0.9 0.00 0.00 0.00 55 1016.9
20260901213253 94 272 0.0 0.9 0.00 0.00 0.00 54 1016.8
20260901212752 94 293 0.0 0.9 0.00 0.00 0.00 51 1016.7
20260901212248 94 265 0.0 0.0 0.00 0.00 0.00 51 1016.9
20260901211743 94 248 1.7 1.7 0.00 0.00 0.00 49 1016.7
20260901211240 94 275 0.0 1.7 0.00 0.00 0.00 51 1016.9
20260901210735 93 299 0.0 0.0 0.00 0.00 0.00 50 1017.0
20260901210230 93 358 0.0 0.9 0.00 0.00 0.00 52 1016.9
20260901205727 94 254 0.0 1.7 0.00 0.00 0.00 50 1016.8
20260901205226 95 272 0.0 0.0 0.00 0.00 0.00 49 1017.1
20260901204722 95 334 0.0 0.9 0.00 0.00 0.00 46 1017.0
20260901204218 94 168 0.0 1.7 0.00 0.00 0.00 50 1017.1
20260901203713 94 193 0.0 1.7 0.00 0.00 0.00 48 1017.1
20260901203207 95 165 0.0 0.9 0.00 0.00 0.00 50 1016.9
20260901202707 95 180 0.0 0.9 0.00 0.00 0.00 48 1017.2